Vorticity
nan nan nan nan nan nan nan nan nan nan nan nan nan nan nan nan nan nan nan nan nan nan nan nan nan nan nan nan nan nan nan nan nan nan nan nan nan nan nan nan nan nan nan nan nan nan nan nan nan
nan 10 7 8 9 4 3 6 5 2 1 7 7 7 5 7 11 11 12 15 9 3 5 6 7 5 5 5 5 6 6 6 5 6 6 6 6 6 5 5 6 6 5 5 5 5 4 4 nan
nan 9 10 4 9 4 3 8 3 1 4 7 6 5 8 7 9 7 12 16 6 4 5 8 7 6 6 5 5 5 5 6 6 6 6 6 6 6 6 6 6 5 5 4 5 4 4 4 nan
nan 6 6 11 6 8 4 6 8 4 7 7 6 6 5 8 9 14 15 8 5 5 6 7 6 6 6 5 5 5 5 5 6 6 6 6 5 5 6 6 6 5 4 4 4 4 4 3 nan
nan 9 7 7 6 7 9 4 12 7 5 8 5 5 6 8 14 18 10 6 5 5 6 5 6 6 6 5 5 4 5 5 6 6 6 6 5 5 6 5 5 5 4 4 4 3 3 3 nan
nan 7 11 10 4 3 7 8 3 6 3 3 6 4 11 10 13 11 8 7 5 6 6 4 5 6 6 5 5 5 5 5 5 6 6 6 6 5 5 5 5 4 4 3 3 4 4 4 nan
nan 9 6 11 11 5 7 6 5 2 0 5 5 7 10 9 11 10 7 7 7 6 5 6 5 5 5 5 5 5 5 5 5 5 6 6 5 5 5 5 5 4 4 4 4 3 4 5 nan
nan 8 9 5 10 7 10 5 12 8 -0 5 6 5 11 16 11 9 8 7 6 5 5 6 6 6 5 5 6 6 5 5 5 5 5 5 4 5 5 6 5 4 4 4 4 5 6 5 nan
nan 9 8 9 5 6 11 8 5 11 13 -1 3 10 18 17 6 7 6 6 5 5 7 6 6 6 6 6 6 6 5 3 3 4 5 4 5 6 3 4 5 5 5 5 5 6 6 7 nan
nan 9 9 6 8 8 7 7 5 10 15 7 1 12 16 8 5 6 5 4 7 5 5 6 6 6 5 7 6 5 4 4 4 5 4 4 6 5 5 5 6 7 8 8 8 7 9 9 nan
nan 10 9 7 6 7 6 6 6 11 9 13 14 9 6 5 5 6 7 7 7 3 5 7 6 6 5 5 5 6 6 7 8 7 6 6 5 6 6 6 7 8 8 8 9 9 8 8 nan
nan 8 8 4 3 6 5 3 9 5 2 1 5 16 12 5 6 6 7 8 7 7 6 5 5 5 5 5 7 7 6 6 7 8 6 5 6 6 6 6 6 7 7 7 7 6 6 7 nan
nan 6 6 3 1 5 7 6 8 6 7 -1 5 15 10 6 9 10 9 8 6 7 7 6 4 4 5 5 6 6 6 7 7 8 6 5 6 6 6 6 6 6 7 7 7 6 7 8 nan
nan 8 6 7 8 6 7 4 3 5 3 4 8 12 15 12 9 8 9 8 6 6 7 8 5 5 5 6 6 5 7 7 6 6 7 6 5 6 6 7 7 7 6 5 8 7 7 7 nan
nan 8 11 10 6 6 9 7 6 -1 -4 1 3 9 19 15 9 7 7 7 6 7 7 7 7 6 6 6 5 6 7 6 7 8 8 7 7 6 6 7 7 7 6 8 9 8 8 7 nan
nan 11 8 12 9 7 5 14 10 10 11 5 6 7 14 15 9 9 8 8 7 8 8 6 7 8 6 6 6 6 8 8 8 7 9 9 7 7 7 7 7 8 9 9 8 8 9 9 nan
nan 13 10 9 12 10 2 5 10 14 11 12 10 9 11 10 10 10 9 9 9 7 7 7 9 9 6 5 7 9 9 8 8 9 9 11 11 9 9 9 8 9 9 9 9 8 7 8 nan
nan 7 9 11 12 8 8 3 -1 6 9 8 10 11 12 12 9 8 9 8 9 8 8 7 9 10 7 7 9 9 8 9 10 10 13 15 16 16 12 11 9 11 8 8 8 9 10 9 nan
nan 6 6 5 3 14 13 14 9 -4 2 5 9 14 15 15 9 9 8 8 7 8 10 9 9 7 6 7 9 8 9 9 9 7 7 10 14 10 14 11 8 7 9 9 9 9 9 8 nan
nan 6 8 8 10 9 11 10 12 14 6 6 9 15 16 11 9 7 7 8 6 8 7 8 9 7 6 7 8 9 10 8 5 4 4 5 7 9 11 6 7 8 10 7 9 10 10 7 nan
nan 8 7 5 11 13 16 15 12 14 13 6 11 19 15 8 6 7 7 7 8 10 8 7 9 8 7 8 10 10 8 6 6 5 4 7 11 10 8 10 7 9 11 11 8 8 12 11 nan
nan 10 7 7 10 7 10 23 16 10 13 10 8 14 11 8 8 8 7 8 6 7 12 11 9 9 9 6 6 9 7 7 8 8 10 6 8 11 10 10 10 12 10 10 10 11 11 11 nan
nan 9 10 10 8 9 6 8 16 16 9 14 11 9 10 9 8 8 8 7 9 9 8 7 8 9 9 8 5 6 9 8 11 9 10 5 2 6 10 11 12 11 10 9 8 9 10 12 nan
nan 9 9 12 13 12 10 8 11 15 13 9 10 10 10 9 7 8 10 9 8 8 9 8 7 9 9 10 9 10 11 8 9 10 5 8 7 8 8 8 9 9 9 8 8 9 11 10 nan
nan 7 7 12 10 14 13 4 12 14 13 12 10 11 10 8 8 9 9 8 8 9 7 8 8 7 9 13 15 13 9 9 8 8 9 9 7 7 8 9 8 9 9 11 10 7 8 9 nan
nan -3 8 11 10 12 9 6 14 12 16 17 13 15 11 8 6 11 10 8 10 10 7 7 8 9 11 11 10 11 9 8 9 10 8 8 10 9 8 8 9 10 9 9 10 9 8 9 nan
nan 5 3 9 11 15 12 3 7 23 21 14 14 12 13 7 9 8 10 10 8 10 10 8 8 10 11 10 8 9 9 10 10 9 10 10 9 8 8 9 9 9 9 10 9 8 8 8 nan
nan 10 5 9 11 11 14 7 7 15 13 12 13 8 9 8 9 8 8 8 6 9 10 10 9 9 9 8 8 9 9 9 9 8 8 9 10 9 8 8 9 8 9 8 9 9 8 9 nan
nan 3 1 4 12 12 14 15 12 10 14 12 11 10 8 9 7 6 7 9 9 8 9 10 10 8 6 7 9 9 8 9 9 10 9 8 8 8 8 8 7 7 8 10 11 10 7 8 nan
nan nan nan nan nan nan nan nan nan nan nan nan nan nan nan nan nan nan nan nan nan nan nan nan nan nan nan nan nan nan nan nan nan nan nan nan nan nan nan nan nan nan nan nan nan nan nan nan nan
CAPE
0 0 0 0 0 0 0 0 0 0 0 0 2 118 190 244 516 575 992 1149 1554 1622 1252 1002 1491 1501 1488 1420 1427 1456 1478 1520 1473 1477 1496 1504 1425 953 557 749 712 535 423 389 330 231 172 258 379
0 0 0 0 0 0 0 0 0 0 0 0 0 2 7 13 314 964 1141 1301 1550 1476 1000 691 1439 1432 1415 1322 1209 1227 1307 1381 1286 1205 1180 1015 963 757 492 729 739 528 492 482 563 588 581 586 538
0 0 0 0 0 0 0 0 0 0 0 0 0 2 42 136 918 963 1116 1543 1595 1278 981 1006 1456 1348 1286 1132 1119 1098 1155 1227 1278 1108 917 680 655 761 933 1040 1016 608 613 791 818 777 600 477 336
0 0 0 0 0 0 0 0 0 0 0 34 0 0 244 708 892 1044 1376 1451 1434 1266 781 1438 1415 1297 1189 985 1031 995 1017 1097 1116 956 763 642 397 538 882 890 1031 811 916 984 1036 784 435 403 303
0 0 0 0 0 0 0 0 0 0 0 55 41 42 196 1447 1389 1518 1489 1472 1455 1338 864 999 1438 1295 1112 990 973 998 972 992 1002 874 595 469 450 485 542 599 689 772 718 871 950 780 430 284 278
0 0 0 0 0 0 0 0 0 0 0 0 0 0 62 1608 1597 1562 1616 1533 1470 1414 1196 913 1423 1254 1104 1061 1062 1054 1020 1028 1029 953 798 514 434 421 495 540 562 567 564 576 575 477 356 301 298
0 0 0 0 0 0 0 0 0 0 0 0 0 0 359 1363 1771 1651 1441 1439 1480 1484 1331 841 617 826 1125 1121 1057 1111 1201 1258 1192 1086 908 697 443 453 487 577 595 615 608 536 501 480 422 438 406
0 0 0 0 0 0 0 0 0 0 0 0 0 0 0 1243 1623 1430 1371 1197 1328 1456 1207 882 628 291 225 370 1053 1095 1290 1307 1191 1018 772 649 480 339 291 303 370 383 417 391 405 433 577 474 374
0 0 0 0 0 0 0 0 0 0 0 0 0 0 621 1558 1501 1456 1342 1144 1220 1324 1300 872 584 517 343 228 498 875 896 1022 1011 784 578 187 7 39 38 54 88 224 266 290 385 549 549 499 424
0 0 0 0 0 0 0 0 0 0 0 0 0 951 1373 1614 1498 1362 1312 1177 1214 1268 1197 869 697 583 417 184 442 170 131 102 206 200 210 54 61 92 52 103 241 269 331 520 712 754 620 402 65
0 0 0 0 0 0 0 0 0 0 0 0 354 674 1470 1483 1683 1573 1211 1006 1037 1204 1234 1055 923 759 388 303 550 233 142 103 142 206 254 213 91 146 112 86 74 149 151 150 253 365 276 244 242
0 0 0 0 0 0 0 0 0 0 0 0 0 258 1591 1705 1674 1662 1244 979 904 1058 1174 1193 870 748 692 518 497 380 271 136 33 63 225 237 177 139 107 74 87 210 361 581 582 504 560 509 444
0 0 0 0 0 0 0 0 0 0 0 0 0 7 1415 1640 1574 1576 1217 879 870 848 1169 1235 963 770 901 731 506 442 476 346 144 137 104 83 101 163 113 82 80 304 465 628 762 781 786 722 586
0 0 0 0 0 0 0 0 0 0 0 0 0 0 28 1401 1482 1292 1086 937 898 885 944 1005 1101 938 851 843 672 502 634 643 533 357 241 233 197 213 109 81 38 89 365 417 965 1007 906 722 915
0 0 0 0 0 0 0 0 0 0 0 0 0 0 138 1007 1231 1152 1099 970 854 917 1024 1111 1028 914 807 966 803 590 585 569 631 525 475 297 272 242 227 88 52 3 172 635 1165 996 1182 1406 1116
0 0 0 0 0 0 0 0 0 0 0 0 0 0 98 1175 1275 987 800 980 877 899 766 768 504 440 485 1003 854 696 614 603 615 514 377 275 231 240 273 203 237 347 773 1298 1566 1814 1504 1215 1043
0 0 0 0 0 0 0 0 0 0 0 0 0 0 0 989 1169 870 572 724 714 836 907 667 997 769 1041 818 592 582 496 447 313 210 143 146 161 164 324 388 625 1073 1314 1855 1649 1508 1309 851 663
0 0 0 0 0 0 0 0 0 0 0 0 0 0 0 372 1173 969 708 546 595 633 758 919 774 929 788 613 353 142 144 138 230 870 1179 964 605 393 563 766 1084 1365 1479 1757 1541 1477 1338 949 517
0 0 0 0 0 0 0 0 0 0 0 0 0 0 0 527 1230 934 815 624 588 609 706 722 681 847 776 808 1038 1183 932 1296 1173 833 506 227 336 517 643 792 638 398 602 685 520 656 685 566 343
0 0 0 0 0 0 0 0 0 0 0 0 0 0 489 1296 1290 1074 804 767 702 637 682 745 735 709 769 1072 1422 1899 1517 658 296 288 116 26 0 20 218 242 172 78 252 399 402 455 621 445 386
2 0 0 0 0 0 0 0 0 0 0 0 0 62 1101 1551 1391 1169 830 814 755 650 674 654 691 768 968 767 980 905 848 694 71 3 5 14 17 10 17 3 41 47 102 36 22 80 168 191 12
0 0 0 0 0 0 1 0 0 0 0 0 0 1197 1390 1507 1481 1404 1073 1110 923 551 334 521 906 693 768 832 775 554 334 281 159 80 15 13 3 2 2 0 0 0 0 0 0 0 0 0 0
0 0 0 0 1 7 5 1 0 0 0 0 0 1008 1552 1621 1680 1581 1433 1224 1000 445 519 359 547 400 503 525 1065 610 420 33 56 7 4 2 0 0 0 0 0 0 0 0 0 0 0 0 0
0 0 0 6 13 15 0 0 0 0 0 0 0 595 1512 1777 1882 1737 1465 1056 784 544 379 163 335 367 574 820 1150 511 549 81 7 7 1 0 0 0 0 0 0 0 0 0 0 0 0 0 0
4 11 3 11 33 0 0 10 0 0 0 0 0 430 1475 1887 1801 1605 1190 996 872 628 435 426 302 193 218 203 570 489 7 3 0 0 0 0 0 0 0 0 0 0 0 0 0 0 0 0 0
0 30 17 0 0 0 0 2 0 0 0 0 0 599 1556 1452 1119 822 1030 1196 536 344 434 128 51 4 3 2 1 2 0 0 0 0 0 0 0 0 0 0 0 0 0 0 0 0 0 1 0
1 2 4 11 2 1 0 0 0 0 0 0 38 1199 1516 1156 317 486 619 412 759 403 177 9 2 1 1 0 0 0 0 0 0 0 0 0 0 0 0 0 0 0 0 0 0 0 0 0 0
13 9 16 26 39 5 0 0 0 0 0 0 184 1354 1204 780 400 525 682 827 339 65 6 2 0 0 0 0 0 0 0 0 0 0 0 0 0 0 0 0 0 0 0 0 0 0 0 0 0
63 59 34 70 63 9 0 0 0 0 0 0 633 1526 1302 840 674 1076 768 44 5 0 0 0 0 0 0 0 0 0 0 0 0 0 0 0 0 0 0 0 0 0 0 0 0 0 0 0 3
65 122 80 2 39 10 1 0 0 0 0 0 542 1729 1431 1140 1166 265 3 3 0 0 0 0 0 0 0 0 0 0 0 0 0 0 0 0 0 0 0 0 0 0 0 0 0 0 0 0 2